Starlink 31097

operational
NORAD ID: 58718 Int'l Des: 2024-002 Owner: SPXS Country: US Constellation: starlink
LEOCIRCULAR

About Starlink 31097

Description loading...

Live Position

Loading 3D Globe...

Upcoming Passes

Altitude History

Altitude vs Time

uPlot chart will show altitude changes over time

Two-Line Element Set

1 58718U 24002P 25303.17960802 -.00000265 00000-0 31703-5 0 9996
2 58718 53.1596 116.1408 0000796 84.4107 275.6984 15.30192639102033
Epoch: Oct 30, 2025 • Age: 36 hours

Current Status

Altitude 480.4 km
Velocity 7.63 km/s
Sub-Earth Point 49.47°N, 120.63°W
Launch Date Jan 3, 2024
Age 1.8 years
Type internet

Technical Details

Classification Payload
Mass 730.00 kg
Dry Mass 700.00 kg
Total Mass 730.00 kg
Length 0.30 m
Diameter 4.10 m
Span 29.00 m
Shape Box + pan
Manufacturer SPXS
Bus Type Starlink V2M
Phase Status In Orbit
Owner/State SPXS/US

Large Constellations

Loading constellations...